This demonstration page uses our WeatherBlox Daily Observations layout. Learn more.

Left ArrowRight Arrow

39.51506, -84.39828

Hourly Observations for September 26, 2020

Temp ( °F °C ) Dew Point ( °F °C ) Humidity (%) Winds ( mph kmh ) Pressure ( in mb ) Visibility ( mi km ) Precip ( " mm )
12:15 am 00:15 Cloudy 68 19.9 63 17.3 85 85 Calm 29.97 1015 10 16.0934 0 0
12:35 am 00:35 Cloudy 67 19.3 64 17.5 89 89 Calm 29.98 1015 10 16.0934 0 0
12:55 am 00:55 Cloudy 66 19 63 17.3 90 90 Calm 29.98 1015 10 16.0934 0 0
1:15 am 01:15 Mostly Cloudy 65 18.3 63 17.1 93 93 Calm 29.98 1015 10 16.0934 0 0
1:35 am 01:35 Cloudy 64 17.7 62 16.9 95 95 Calm 29.98 1015 10 16.0934 0 0
1:55 am 01:55 Mostly Cloudy 63 17.4 62 16.7 96 96 Calm 29.98 1015 10 16.0934 0 0
2:15 am 02:15 Cloudy 63 17.1 62 16.4 96 96 Calm 29.98 1015 10 16.0934 0 0
2:35 am 02:35 Clear 62 16.9 62 16.6 98 98 Calm 29.98 1015 10 16.0934 0 0
2:55 am 02:55 Clear 61 16 61 16 100 100 Calm 29.98 1015 10 16.0934 0 0
3:15 am 03:15 Clear with Mist and Fog 59 15 N/A N/A Calm 29.99 1015 4 6.43736 0 0
3:35 am 03:35 Hazy 61 16 N/A N/A Calm 29.97 1015 4 6.43736 0 0
3:55 am 03:55 Hazy 59 15 N/A N/A Calm 29.98 1015 5 8.0467 0 0
4:15 am 04:15 Mostly Cloudy with Mist and Fog 59 15 N/A N/A Calm 29.98 1015 0.75 1.207005 0 0
4:35 am 04:35 Clear 57 14 N/A N/A Calm 29.98 1015 7 11.26538 0 0
4:55 am 04:55 Clear with Mist and Fog 59 15 N/A N/A Calm 29.98 1015 3 4.82802 0 0
5:15 am 05:15 Mostly Cloudy with Mist and Fog 57 14 N/A N/A Calm 29.99 1016 0.75 1.207005 0 0
5:35 am 05:35 Mostly Cloudy with Fog 57 14 N/A N/A Calm 29.99 1016 0.25 0.402335 0 0
5:55 am 05:55 Clear with Mist and Fog 57 14 N/A N/A Calm 29.99 1016 2.5 4.02335 0 0
6:15 am 06:15 Mostly Cloudy with Fog 57 14 N/A N/A Calm 30 1016 0.5 0.80467 0 0
6:35 am 06:35 Mostly Cloudy with Mist and Fog 57 14 N/A N/A Calm 30.01 1016 1 1.60934 0 0
6:55 am 06:55 Mostly Cloudy with Fog 54 12 N/A N/A Calm 30.01 1016 0.25 0.402335 0 0
7:15 am 07:15 Mostly Cloudy with Fog 55 13 N/A N/A Calm 30.01 1016 0.25 0.402335 0 0
7:35 am 07:35 Mostly Cloudy with Fog 55 13 N/A N/A Calm 30.02 1017 0.25 0.402335 0 0
7:55 am 07:55 Mostly Cloudy with Mist and Fog 55 13 N/A N/A Calm 30.03 1017 1.75 2.816345 0 0
8:15 am 08:15 Sunny 55 13 N/A N/A Calm 30.03 1017 10 16.0934 0 0
8:35 am 08:35 Sunny 57 14 N/A N/A Calm 30.04 1017 10 16.0934 0 0
8:55 am 08:55 Sunny 61 16 N/A N/A Calm 30.03 1017 10 16.0934 0 0
9:15 am 09:15 Sunny 63 17 N/A N/A Calm 30.02 1017 10 16.0934 0 0
9:35 am 09:35 Sunny 64 17.8 64 17.5 98 98 Calm 30.03 1017 10 16.0934 0 0
9:55 am 09:55 Sunny 66 18.8 64 17.6 93 93 SW 3 6 30.03 1017 10 16.0934 0 0
10:15 am 10:15 Mostly Cloudy 67 19.3 64 17.7 91 91 SW 3 6 30.03 1017 10 16.0934 0 0
10:35 am 10:35 Cloudy 69 20.6 64 17.7 84 84 SSW 6 9 30.02 1017 10 16.0934 0 0
10:55 am 10:55 Cloudy 71 21.4 63 17.4 78 78 SSW 8 13 30.02 1017 10 16.0934 0 0
11:20 am 11:20 Cloudy 71 21.7 63 17.3 76 76 WSW 10 17 30.01 1016 10 16.0934 0 0
11:35 am 11:35 Cloudy 72 22.1 63 17.4 75 75 SW 10 17 30.01 1016 10 16.0934 0 0
11:55 am 11:55 Mostly Cloudy 73 22.9 64 17.5 72 72 WSW 10 17 30 1016 10 16.0934 0 0
12:15 pm 12:15 Partly Cloudy 76 24.2 64 17.6 67 67 SSW 15 24 29.98 1015 10 16.0934 0 0
12:35 pm 12:35 Partly Cloudy 74 23.6 63 17.2 67 67 SSW 15 24 29.98 1015 10 16.0934 0 0
12:55 pm 12:55 Cloudy 74 23.3 63 17.2 69 69 SSW 13 20 29.98 1015 10 16.0934 0 0
1:15 pm 13:15 Cloudy 75 23.8 63 17.2 67 67 S 9 15 29.97 1015 10 16.0934 0 0
1:35 pm 13:35 Cloudy 76 24.2 63 17.2 65 65 SSW 14 22 29.95 1014 10 16.0934 0 0
1:55 pm 13:55 Cloudy 76 24.3 62 16.5 62 62 SSW 17 28 29.95 1014 10 16.0934 0 0
2:15 pm 14:15 Cloudy 76 24.5 62 16.7 62 62 SW 12 19 29.94 1014 10 16.0934 0 0
2:35 pm 14:35 Cloudy 76 24.6 61 16.3 60 60 SSW 16 26 29.93 1014 10 16.0934 0 0
2:55 pm 14:55 Cloudy 77 24.9 61 16.1 58 58 SSW 15 24 29.93 1014 10 16.0934 0 0
3:15 pm 15:15 Cloudy 77 25.2 61 16.1 57 57 SSW 15 24 29.92 1013 10 16.0934 0 0
3:35 pm 15:35 Cloudy 77 24.9 62 16.5 60 60 SSW 14 22 29.92 1013 10 16.0934 0 0
3:55 pm 15:55 Cloudy 77 25 62 16.7 60 60 SSW 14 22 29.91 1013 10 16.0934 0 0
4:15 pm 16:15 Cloudy 77 25 62 16.4 59 59 SSW 13 20 29.91 1013 10 16.0934 0 0
4:35 pm 16:35 Cloudy 77 24.9 62 16.5 60 60 SSW 15 24 29.9 1013 10 16.0934 0 0
4:55 pm 16:55 Mostly Cloudy 78 25.3 62 16.6 59 59 SW 14 22 29.9 1013 10 16.0934 0 0
5:15 pm 17:15 Mostly Cloudy 77 25 61 16.2 58 58 SW 15 24 29.9 1013 10 16.0934 0 0
5:35 pm 17:35 Mostly Cloudy 78 25.4 62 16.5 58 58 S 13 20 29.9 1013 10 16.0934 0 0
5:55 pm 17:55 Mostly Cloudy 78 25.5 61 16.2 56 56 SSW 15 24 29.89 1012 10 16.0934 0 0
6:15 pm 18:15 Mostly Cloudy 77 25 61 16.3 59 59 SW 13 20 29.9 1013 10 16.0934 0 0
6:35 pm 18:35 Partly Cloudy 76 24.5 61 16.1 60 60 SSW 14 22 29.9 1013 10 16.0934 0 0
6:55 pm 18:55 Sunny 76 24.2 61 16.1 61 61 SSW 12 19 29.9 1013 10 16.0934 0 0
7:15 pm 19:15 Sunny 74 23.4 61 16.2 64 64 SSW 8 13 29.91 1013 10 16.0934 0 0
7:35 pm 19:35 Clear 73 22.5 62 16.4 69 69 SSW 8 13 29.9 1012 10 16.0934 0 0
7:55 pm 19:55 Clear 73 22.7 61 16.1 66 66 SSW 12 19 29.9 1012 10 16.0934 0 0
8:15 pm 20:15 Clear 72 22.3 61 16 68 68 SSW 10 17 29.9 1013 10 16.0934 0 0
8:35 pm 20:35 Clear 71 21.5 61 16 71 71 SSW 8 13 29.9 1013 10 16.0934 0 0
8:55 pm 20:55 Clear 70 21.3 61 16.1 72 72 SSW 7 11 29.9 1013 10 16.0934 0 0
9:15 pm 21:15 Clear 70 20.9 61 16.1 74 74 SSW 6 9 29.91 1013 10 16.0934 0 0
9:35 pm 21:35 Clear 69 20.7 61 16.3 76 76 SSW 7 11 29.91 1013 10 16.0934 0 0
9:55 pm 21:55 Clear 67 19.3 61 16.3 83 83 SSW 5 7 29.92 1013 10 16.0934 0 0
10:15 pm 22:15 Clear 64 18 60 15.8 87 87 WSW 3 6 29.92 1013 10 16.0934 0 0
10:35 pm 22:35 Clear 64 18 62 16.4 90 90 SW 3 6 29.92 1013 10 16.0934 0 0
10:55 pm 22:55 Clear 63 17.3 61 16.1 93 93 SW 3 6 29.92 1013 10 16.0934 0 0
11:15 pm 23:15 Clear 63 17.3 61 16.2 93 93 SSW 3 6 29.92 1013 10 16.0934 0 0
11:35 pm 23:35 Clear 62 16.4 60 15.8 96 96 SW 3 6 29.92 1013 10 16.0934 0 0
11:55 pm 23:55 Clear 62 16.8 61 16.2 96 96 SW 3 6 29.92 1013 10 16.0934 0 0

Powered by AerisWeather